Location: Maignaut
(43.8886°N, 0.4051°E)
Time: 02:44:21
(UTC+00:00)

Feng Yun 1-1 Rocket - Pass Details

Date: 17 January 2021
Orbit: 830 x 933 km, 99.2° (Epoch: 04 March)

Event Time Altitude Azimuth Distance (km) Brightness Sun altitude
Rises 17:58:49 0° 160° (SSE) 3,360 7.3 -12.4°
Reaches altitude 10° 18:01:08 10° 160° (SSE) 2,434 6.6 -12.8°
Maximum altitude 18:06:31 82° 74° (ENE) 854 4.1 -13.7°
Drops below altitude 10° 18:12:02 10° 347° (NNW) 2,491 6.6 -14.7°
Sets 18:14:26 0° 347° (NNW) 3,445 7.4 -15.1°
